Pittsburgh Allegheny Co., PA

8:34 AM EST on December 11, 2017 (GMT -0500)
Allegheny County

Weather History for KAGC - March, 2013

Change the Weather History Date:

Sunday, March 10, 2013

  Actual Average Record
Temperature  
Mean Temperature 55 °F -  
Max Temperature 68 °F 48 °F 68 °F (2013)
Min Temperature 42 °F 26 °F 12 °F (2003)
Degree Days  
Heating Degree Days 10    
Growing Degree Days 5 (Base 50)    
Moisture  
Dew Point 26 °F    
Average Humidity 34    
Maximum Humidity 46    
Minimum Humidity 21    
Precipitation  
Precipitation 0.00 in - - ()
Sea Level Pressure  
Sea Level Pressure 30.09 in    
Wind  
Wind Speed 8 mph (SSE)    
Max Wind Speed 14 mph    
Max Gust Speed 22 mph    
Visibility 10 miles    
Events      
Averages and records for this station are not official NWS values.
T = Trace of Precipitation, MM = Missing Value Source: NWS Daily Summary

Daily Weather History Graph

Daily Weather History Graph

Search for Another Location

Airport or City:

Trip Planner

Search our weather history database for the weather conditions in past years. The results will help you decide how hot, cold, wet, or windy it might be!

Date:

Astronomy

Mar. 10, 2013 Rise Set
Actual Time 7:38 AM EDT 7:21 PM EDT
Civil Twilight 7:11 AM EDT 7:48 PM EDT
Nautical Twilight 6:40 AM EDT 8:20 PM EDT
Astronomical Twilight 6:08 AM EDT 8:52 PM EDT
Moon 6:38 AM EDT (3/10) 6:27 PM EDT (3/10)
Length of Visible Light 12h 36m
Length of Day
11h 42m
Waning Crescent, 2% of the Moon is Illuminated
Mar 10
Waning Crescent
Mar 11
New
Mar 19
First Quarter
Mar 27
Full
Apr 3
Last Quarter

Hourly Weather History & Observations

Time (EDT) Temp. Windchill Dew Point Humidity Pressure Visibility Wind Dir Wind Speed Gust Speed Precip Events Conditions
12:53 AM 42.1 °F 37.1 °F 21.0 °F 43% 30.18 in 10.0 mi SE 8.1 mph - N/A   Clear
1:53 AM 43.0 °F 38.8 °F 23.0 °F 45% 30.17 in 10.0 mi SE 6.9 mph - N/A   Clear
3:53 AM 42.1 °F 37.7 °F 21.9 °F 45% 30.14 in 10.0 mi SE 6.9 mph - N/A   Overcast
4:53 AM 44.1 °F 40.8 °F 21.0 °F 40% 30.14 in 10.0 mi SE 5.8 mph - N/A   Overcast
5:53 AM 44.1 °F 40.8 °F 21.0 °F 40% 30.14 in 10.0 mi SE 5.8 mph - N/A   Overcast
6:53 AM 44.1 °F 40.8 °F 21.0 °F 40% 30.14 in 10.0 mi SSE 5.8 mph - N/A   Mostly Cloudy
7:53 AM 44.6 °F 40.7 °F 24.8 °F 46% 30.12 in 10.0 mi South 6.9 mph - N/A   Mostly Cloudy
8:53 AM 46.0 °F 42.5 °F 23.0 °F 40% 30.16 in 10.0 mi SSE 6.9 mph - N/A   Partly Cloudy
9:53 AM 50.0 °F - 24.1 °F 36% 30.16 in 10.0 mi SSE 9.2 mph - N/A   Scattered Clouds
10:53 AM 54.0 °F - 26.1 °F 34% 30.16 in 10.0 mi SSE 6.9 mph - N/A   Mostly Cloudy
11:53 AM 59.0 °F - 27.0 °F 29% 30.15 in 10.0 mi South 9.2 mph - N/A   Clear
12:53 PM 64.0 °F - 28.9 °F 27% 30.14 in 10.0 mi Variable 6.9 mph - N/A   Mostly Cloudy
1:53 PM 66.0 °F - 30.0 °F 26% 30.11 in 10.0 mi South 9.2 mph - N/A   Clear
2:53 PM 66.9 °F - 28.9 °F 24% 30.07 in 10.0 mi Variable 6.9 mph - N/A   Partly Cloudy
3:53 PM 66.9 °F - 28.0 °F 23% 30.05 in 10.0 mi SSE 10.4 mph - N/A   Clear
4:53 PM 68.0 °F - 26.1 °F 21% 30.03 in 10.0 mi South 13.8 mph - N/A   Clear
5:53 PM 66.9 °F - 28.9 °F 24% 30.01 in 10.0 mi SE 12.7 mph 19.6 mph N/A   Clear
6:53 PM 64.0 °F - 28.0 °F 26% 30.04 in 10.0 mi SSE 9.2 mph 18.4 mph N/A   Clear
7:53 PM 61.0 °F - 28.9 °F 30% 30.05 in 10.0 mi SSE 6.9 mph - N/A   Clear
8:53 PM 60.1 °F - 28.9 °F 31% 30.04 in 10.0 mi SE 10.4 mph 21.9 mph N/A   Clear
9:53 PM 57.9 °F - 28.9 °F 33% 30.03 in 10.0 mi SSE 13.8 mph 21.9 mph N/A   Clear
10:53 PM 55.9 °F - 30.0 °F 37% 30.01 in 10.0 mi SE 10.4 mph - N/A   Clear
11:53 PM 54.0 °F - 30.0 °F 40% 30.01 in 10.0 mi SSE 8.1 mph - N/A   Clear
12:53 AM 55.0 °F - 30.0 °F 38% 29.99 in 10.0 mi SSE 11.5 mph - N/A   Clear